Weather in Hirne

Ukraine / Luhansk Region     48°16′28″N   39°36′15″E
temp.,
°C
wind,
m/s
gust,
m/s
humid.,
%
clouds,
%
prec.,
mm/h
press.,
hPa
HPBL,
m
17 october, sun
sun1700:00+10ene125795 0.0 101611
03:00+9nne2260100 0.0 101612
06:00+8nne2266100 0.0 101628
09:00+11ne3558100 0.0 1016215
12:00+16ne4442100 0.0 1015586
15:00+17nne4436100 0.0 1014978
18:00+13n3449100 0.0 101569
21:00+11n2259100 0.0 101516
18 october, mon
mon1800:00+10nnw226576 0.0 101514
03:00+9nnw226681 0.0 101618
06:00+10nnw2560100 0.0 1016151
09:00+11nnw2560100 0.0 1016218
12:00+12nw3455100 0.0 1016434
15:00+15wnw344978 0.0 1015875
18:00+11nw3459100 0.0 101666
21:00+9nw345998 0.0 101782
19 october, tue
tue1900:00+8wnw2262100 0.0 101729
03:00+7w2461100 0.0 101681
06:00+7wnw3860100 0.0 1016256
09:00+8w3666100 0.0 10161024
12:00+8wnw4669100 0.1 1016969
15:00+8nw4675100 0.2 1016839
18:00+7nw3580100 0.2 1016973
21:00+7nnw5783100 0.5 1017955
20 october, wed
wed2000:00+4nw511836 0.4 1019311
03:00+2nw510735 0.4 1021305
06:00+2nw5107974 0.0 1023437
09:00+3nnw69675 0.0 1025765
12:00+6nnw674699 0.0 10261616
15:00+7nw663970 0.0 10261712
18:00+4nw35495 0.0 102878
21:00+3w225499 0.0 102811
21 october, thu
thu2100:00+3wsw225676 0.0 102914
03:00+2sw32600 0.0 102825
06:00+1sw2263100 0.0 102825
09:00+5sw36515 0.0 1028293
12:00+10sw563647 0.0 1026933
15:00+11sw67375 0.0 10241076
18:00+7ssw510565 0.0 1024262
21:00+5ssw311595 0.0 1023264